Find Starlink 30771

NORAD ID: 58169 Int'l Des: 2023-166 Owner: SPXS Country: US Constellation: starlink operational
LEOCIRCULAR

リアルタイム位置

3D地球を読み込み中...

Starlink 30771について

説明を読み込み中...

次回通過

Passes for default location (London). Set your location on the main map for personalized predictions.

高度履歴

Loading altitude history...

軌道要素

1 58169U 23166V 26124.81448422 .00000057 00000-0 14040-4 0 9990
2 58169 53.1619 318.8215 0001167 88.1820 271.9315 15.30195727141774
Epoch: May 4, 2026 • Age: 12 hours

現在のステータス

高度 475.2 km
速度 7.63 km/s
衛星直下点 15.98°N, 152.82°E
打ち上げ日 Oct 29, 2023
運用期間 2.5 years
タイプ internet

技術仕様

分類 Payload
質量 730.00 kg
乾燥質量 700.00 kg
総質量 730.00 kg
長さ 0.30 m
直径 4.10 m
スパン 29.00 m
形状 Box + pan
製造者 SPXS
バスタイプ Starlink V2M
フェーズステータス In Orbit
所有者/国 SPXS/US

Most Searched